Location: Lake Sonoma
(38.7200°N, 123.0564°W)
Time: 04:17:08
(UTC-08:00)

ISS - Visible Passes

Search period start: 21 November 2017 00:00
Search period end: 01 December 2017 00:00
Orbit: 402 x 407 km, 51.6° (Epoch: 21 November)

Date Brightness Start Highest point End Pass type
(mag) Time Alt. Az. Time Alt. Az. Time Alt. Az.
24 Nov -1.5 18:47:04 10° SSW 18:48:05 17° S 18:48:05 17° S visible
25 Nov -1.8 17:55:55 10° SSE 17:57:48 14° SE 17:58:20 14° ESE visible
25 Nov -0.4 19:30:44 10° WSW 19:31:01 12° WSW 19:31:01 12° WSW visible
26 Nov -3.5 18:38:20 10° SW 18:41:10 62° SSW 18:41:10 62° SSW visible
27 Nov -3.0 17:46:18 10° SSW 17:49:20 36° SE 17:51:13 19° ENE visible
27 Nov -0.7 19:23:03 10° W 19:23:53 15° WNW 19:23:53 15° WNW visible
28 Nov -3.0 18:30:14 10° WSW 18:33:23 42° NNW 18:33:51 39° N visible
29 Nov -3.8 17:37:42 10° SW 17:40:58 83° NW 17:43:44 14° NE visible
29 Nov -0.7 19:15:47 10° WNW 19:16:23 12° NW 19:16:23 12° NW visible
30 Nov -1.9 18:22:36 10° W 18:25:15 22° NNW 18:26:12 19° N visible
